• In Deutschland
  • Länderverzeichnis
  • Für 7 Tage
  • Wassertemperatur
  • Satellitenkarten
  • Wetterkarte
  • Widgets
  • user-avatar
    Anmelden

    Stündliche Wetter Igls

    Heute, 29 März, Mittwoch

    Zeit Temperatur Niederschläge Wind Luftdruck Luftfeuchtigkeit
    00:00 +8°C° 0 mm 1 m/S 689 mmHg 95%
    01:00 +8°C° 0 mm 2 m/S 689 mmHg 94%
    02:00 +7°C° 0 mm 2 m/S 689 mmHg 95%
    03:00 +7°C° 0 mm 2 m/S 689 mmHg 95%
    04:00 +6°C° 0 mm 2 m/S 689 mmHg 96%
    05:00 +7°C° 0 mm 1 m/S 690 mmHg 96%
    06:00 +8°C° 0 mm 1 m/S 690 mmHg 95%
    07:00 +9°C° 0 mm 1 m/S 690 mmHg 93%
    08:00 +10°C° 0 mm 1 m/S 691 mmHg 89%
    09:00 +11°C° 0 mm 1 m/S 691 mmHg 85%
    10:00 +13°C° 0 mm 1 m/S 691 mmHg 82%
    11:00 +13°C° 0 mm 1 m/S 691 mmHg 78%
    12:00 +14°C° 0 mm 1 m/S 691 mmHg 75%
    13:00 +15°C° 0 mm 1 m/S 691 mmHg 72%
    14:00 +15°C° 0 mm 1 m/S 690 mmHg 73%
    15:00 +14°C° 0 mm 1 m/S 690 mmHg 74%
    16:00 +14°C° 0 mm 1 m/S 690 mmHg 75%
    17:00 +12°C° 0 mm 1 m/S 690 mmHg 82%
    18:00 +10°C° 0 mm 1 m/S 689 mmHg 88%
    19:00 +9°C° 0 mm 1 m/S 689 mmHg 94%
    20:00 +8°C° 0 mm 1 m/S 689 mmHg 95%
    21:00 +8°C° 0 mm 1 m/S 690 mmHg 95%
    22:00 +8°C° 0 mm 1 m/S 690 mmHg 96%
    23:00 +7°C° 0 mm 1 m/S 690 mmHg 96%

    Morgen, 30 März, Donnerstag

    Zeit Temperatur Niederschläge Wind Luftdruck Luftfeuchtigkeit
    00:00 +7°C° 0 mm 1 m/S 690 mmHg 96%
    01:00 +6°C° 0 mm 1 m/S 690 mmHg 96%
    02:00 +6°C° 0 mm 1 m/S 690 mmHg 96%
    03:00 +5°C° 0 mm 1 m/S 690 mmHg 96%
    04:00 +5°C° 0 mm 1 m/S 690 mmHg 96%
    05:00 +5°C° 0 mm 1 m/S 690 mmHg 93%
    06:00 +5°C° 0 mm 0 m/S 690 mmHg 90%
    07:00 +6°C° 0 mm 0 m/S 690 mmHg 88%
    08:00 +8°C° 0 mm 0 m/S 691 mmHg 80%
    09:00 +11°C° 0 mm 0 m/S 691 mmHg 73%
    10:00 +13°C° 0 mm 0 m/S 691 mmHg 65%
    11:00 +15°C° 0 mm 1 m/S 691 mmHg 62%
    12:00 +16°C° 0 mm 1 m/S 691 mmHg 59%
    13:00 +18°C° 0 mm 1 m/S 691 mmHg 57%
    14:00 +18°C° 0 mm 1 m/S 691 mmHg 58%
    15:00 +18°C° 0 mm 1 m/S 690 mmHg 60%
    16:00 +16°C° 0 mm 1 m/S 690 mmHg 62%
    17:00 +13°C° 0 mm 1 m/S 689 mmHg 71%
    18:00 +10°C° 0 mm 1 m/S 689 mmHg 81%
    19:00 +8°C° 0 mm 1 m/S 688 mmHg 91%
    20:00 +8°C° 0 mm 1 m/S 688 mmHg 90%
    21:00 +8°C° 0 mm 1 m/S 689 mmHg 90%
    22:00 +7°C° 0 mm 2 m/S 689 mmHg 90%
    23:00 +7°C° 0 mm 2 m/S 689 mmHg 90%

    übermorgen, 31 März, Freitag

    Zeit Temperatur Niederschläge Wind Luftdruck Luftfeuchtigkeit
    00:00 +7°C° 0 mm 2 m/S 689 mmHg 90%
    01:00 +6°C° 0 mm 2 m/S 689 mmHg 90%
    02:00 +6°C° 0 mm 2 m/S 688 mmHg 91%
    03:00 +6°C° 0 mm 2 m/S 688 mmHg 92%
    04:00 +6°C° 0 mm 2 m/S 688 mmHg 92%
    05:00 +6°C° 0 mm 2 m/S 688 mmHg 91%
    06:00 +7°C° 0 mm 2 m/S 687 mmHg 91%
    07:00 +7°C° 0 mm 2 m/S 687 mmHg 90%
    08:00 +10°C° 0 mm 2 m/S 687 mmHg 81%
    09:00 +13°C° 0 mm 2 m/S 688 mmHg 72%
    10:00 +16°C° 0 mm 1 m/S 688 mmHg 63%
    11:00 +18°C° 0 mm 1 m/S 687 mmHg 59%
    12:00 +19°C° 0 mm 1 m/S 687 mmHg 55%
    13:00 +20°C° 0 mm 1 m/S 687 mmHg 51%
    14:00 +18°C° 0 mm 2 m/S 686 mmHg 54%
    15:00 +18°C° 0 mm 2 m/S 686 mmHg 56%
    16:00 +17°C° 0 mm 2 m/S 685 mmHg 59%
    17:00 +15°C° 0,1 mm 1 m/S 685 mmHg 70%
    18:00 +12°C° 0,1 mm 1 m/S 684 mmHg 81%
    19:00 +9°C° 0,1 mm 1 m/S 683 mmHg 93%
    20:00 +9°C° 0 mm 1 m/S 684 mmHg 93%
    21:00 +8°C° 0 mm 2 m/S 684 mmHg 93%
    22:00 +8°C° 0 mm 2 m/S 684 mmHg 92%
    23:00 +7°C° 0 mm 2 m/S 684 mmHg 92%

    1 April, Samstag

    Zeit Temperatur Niederschläge Wind Luftdruck Luftfeuchtigkeit
    00:00 +7°C° 0 mm 2 m/S 684 mmHg 93%
    01:00 +7°C° 0 mm 2 m/S 683 mmHg 93%
    02:00 +7°C° 0 mm 2 m/S 683 mmHg 93%
    03:00 +6°C° 0 mm 2 m/S 683 mmHg 93%
    04:00 +6°C° 0 mm 2 m/S 682 mmHg 93%
    05:00 +6°C° 0 mm 2 m/S 682 mmHg 91%
    06:00 +6°C° 0 mm 2 m/S 682 mmHg 89%
    07:00 +6°C° 0 mm 2 m/S 682 mmHg 87%
    08:00 +9°C° 0 mm 2 m/S 683 mmHg 78%
    09:00 +12°C° 0 mm 2 m/S 683 mmHg 69%
    10:00 +14°C° 0 mm 2 m/S 683 mmHg 60%
    11:00 +15°C° 0 mm 2 m/S 683 mmHg 58%
    12:00 +16°C° 0 mm 2 m/S 683 mmHg 55%
    13:00 +16°C° 0 mm 2 m/S 683 mmHg 52%
    14:00 +16°C° 0,3 mm 2 m/S 682 mmHg 56%
    15:00 +15°C° 0,3 mm 2 m/S 682 mmHg 61%
    16:00 +15°C° 0,3 mm 2 m/S 682 mmHg 65%
    17:00 +13°C° 0,5 mm 2 m/S 682 mmHg 74%
    18:00 +10°C° 0,5 mm 1 m/S 681 mmHg 83%
    19:00 +8°C° 0,5 mm 1 m/S 681 mmHg 92%
    20:00 +8°C° 0,3 mm 1 m/S 682 mmHg 93%
    21:00 +8°C° 0,3 mm 1 m/S 682 mmHg 93%
    22:00 +6°C° 0,3 mm 2 m/S 683 mmHg 94%
    23:00 +6°C° 0,1 mm 2 m/S 683 mmHg 94%

    2 April, Sonntag

    Zeit Temperatur Niederschläge Wind Luftdruck Luftfeuchtigkeit
    00:00 +7°C° 0,1 mm 1 m/S 683 mmHg 94%
    01:00 +7°C° 0,1 mm 1 m/S 683 mmHg 94%
    02:00 +7°C° 0 mm 1 m/S 683 mmHg 94%
    03:00 +6°C° 0 mm 1 m/S 683 mmHg 94%
    04:00 +6°C° 0 mm 1 m/S 684 mmHg 94%
    05:00 +7°C° 0,1 mm 1 m/S 684 mmHg 92%
    06:00 +7°C° 0,1 mm 1 m/S 684 mmHg 90%
    07:00 +8°C° 0,1 mm 1 m/S 685 mmHg 87%
    08:00 +9°C° 0 mm 1 m/S 685 mmHg 80%
    09:00 +11°C° 0 mm 1 m/S 686 mmHg 73%
    10:00 +13°C° 0 mm 1 m/S 686 mmHg 66%
    11:00 +13°C° 0,1 mm 1 m/S 686 mmHg 65%
    12:00 +14°C° 0,1 mm 1 m/S 686 mmHg 63%
    13:00 +14°C° 0,1 mm 2 m/S 686 mmHg 62%
    14:00 +14°C° 0,1 mm 1 m/S 686 mmHg 65%
    15:00 +14°C° 0,1 mm 1 m/S 686 mmHg 69%
    16:00 +13°C° 0,1 mm 1 m/S 686 mmHg 72%
    17:00 +12°C° 0,1 mm 1 m/S 686 mmHg 80%
    18:00 +10°C° 0,1 mm 1 m/S 686 mmHg 87%
    19:00 +8°C° 0,1 mm 1 m/S 686 mmHg 95%
    20:00 +7°C° 0,1 mm 0 m/S 686 mmHg 95%
    21:00 +7°C° 0,1 mm 0 m/S 687 mmHg 95%
    22:00 +7°C° 0,1 mm 0 m/S 687 mmHg 95%
    23:00 +7°C° 0,1 mm 0 m/S 687 mmHg 96%

    3 April, Montag

    Zeit Temperatur Niederschläge Wind Luftdruck Luftfeuchtigkeit
    00:00 +6°C° 0,1 mm 0 m/S 687 mmHg 96%
    01:00 +6°C° 0,1 mm 0 m/S 687 mmHg 96%
    02:00 +6°C° 0,1 mm 0 m/S 687 mmHg 96%
    03:00 +6°C° 0,1 mm 0 m/S 688 mmHg 96%
    04:00 +6°C° 0,1 mm 0 m/S 688 mmHg 96%
    05:00 +7°C° 0,1 mm 0 m/S 688 mmHg 95%
    06:00 +7°C° 0,1 mm 0 m/S 688 mmHg 94%
    07:00 +9°C° 0,1 mm 1 m/S 689 mmHg 93%
    08:00 +10°C° 0,1 mm 1 m/S 689 mmHg 88%
    09:00 +11°C° 0,1 mm 1 m/S 689 mmHg 82%
    10:00 +12°C° 0,1 mm 1 m/S 689 mmHg 77%
    11:00 +13°C° 0,1 mm 1 m/S 689 mmHg 75%
    12:00 +14°C° 0,1 mm 1 m/S 689 mmHg 72%
    13:00 +14°C° 0,1 mm 1 m/S 689 mmHg 69%
    14:00 +14°C° 0,3 mm 1 m/S 689 mmHg 72%
    15:00 +14°C° 0,3 mm 1 m/S 688 mmHg 75%
    16:00 +14°C° 0,3 mm 1 m/S 688 mmHg 78%
    17:00 +12°C° 0,3 mm 1 m/S 688 mmHg 84%
    18:00 +11°C° 0,3 mm 1 m/S 688 mmHg 90%
    19:00 +9°C° 0,3 mm 1 m/S 688 mmHg 96%
    20:00 +9°C° 0,1 mm 1 m/S 688 mmHg 96%
    21:00 +9°C° 0,1 mm 1 m/S 688 mmHg 96%
    22:00 +9°C° 0,1 mm 1 m/S 689 mmHg 97%
    23:00 +8°C° 0 mm 1 m/S 689 mmHg 97%
    Mehr zeigen